QPF
0.00 0.00 0.00 0.00 0.00 0.00 0.00 0.00 0.00 0.00 0.00 0.00 0.00 0.00 0.00 0.00 0.00 0.00 0.00 0.00 0.00 0.00 0.00 0.00 0.00 0.00 0.00 0.00 0.00 0.00 0.00 0.00 0.00 0.00 0.00 0.00 0.00 0.00 0.00 0.00 0.00 0.00 0.00 0.00
0.00 0.00 0.00 0.00 0.00 0.00 0.00 0.00 0.00 0.00 0.00 0.00 0.00 0.00 0.00 0.00 0.00 0.00 0.00 0.00 0.00 0.00 0.00 0.00 0.00 0.00 0.00 0.00 0.00 0.00 0.00 0.00 0.00 0.00 0.00 0.00 0.00 0.00 0.00 0.00 0.00 0.00 0.00 0.00
0.00 0.00 0.00 0.00 0.00 0.00 0.00 0.00 0.00 0.00 0.00 0.00 0.00 0.00 0.00 0.00 0.00 0.00 0.00 0.00 0.00 0.00 0.00 0.00 0.00 0.00 0.00 0.00 0.00 0.00 0.00 0.00 0.00 0.00 0.00 0.00 0.00 0.00 0.00 0.00 0.00 0.00 0.00 0.00
0.00 0.00 0.00 0.00 0.00 0.00 0.00 0.00 0.00 0.00 0.00 0.00 0.00 0.00 0.00 0.00 0.00 0.00 0.00 0.00 0.00 0.00 0.00 0.00 0.00 0.00 0.00 0.00 0.00 0.00 0.00 0.00 0.00 0.00 0.00 0.00 0.00 0.00 0.00 0.00 0.00 0.00 0.00 0.00
0.00 0.00 0.00 0.00 0.00 0.00 0.00 0.00 0.00 0.00 0.00 0.00 0.00 0.00 0.00 0.00 0.00 0.00 0.00 0.00 0.00 0.00 0.00 0.00 0.00 0.00 0.00 0.00 0.00 0.00 0.00 0.00 0.00 0.00 0.00 0.00 0.00 0.00 0.00 0.00 0.00 0.00 0.00 0.00
0.00 0.00 0.00 0.00 0.00 0.00 0.00 0.00 0.00 0.00 0.00 0.00 0.00 0.00 0.00 0.00 0.00 0.00 0.00 0.00 0.00 0.00 0.00 0.00 0.00 0.00 0.00 0.00 0.00 0.00 0.00 0.00 0.00 0.00 0.00 0.00 0.00 0.00 0.00 0.00 0.00 0.00 0.00 0.00
0.00 0.00 0.00 0.00 0.00 0.00 0.00 0.00 0.00 0.00 0.00 0.00 0.00 0.00 0.00 0.00 0.00 0.00 0.00 0.00 0.00 0.00 0.00 0.00 0.00 0.00 0.00 0.00 0.00 0.00 0.00 0.00 0.00 0.00 0.00 0.00 0.00 0.00 0.00 0.00 0.00 0.00 0.00 0.00
0.00 0.00 0.00 0.00 0.00 0.00 0.00 0.00 0.00 0.00 0.00 0.00 0.00 0.00 0.00 0.00 0.00 0.00 0.00 0.00 0.00 0.00 0.00 0.00 0.00 0.00 0.00 0.00 0.00 0.00 0.00 0.00 0.00 0.00 0.00 0.00 0.00 0.00 0.00 0.00 0.00 0.00 0.00 0.00
0.00 0.00 0.00 0.00 0.00 0.00 0.00 0.00 0.00 0.00 0.00 0.00 0.00 0.00 0.00 0.00 0.00 0.00 0.00 0.00 0.00 0.00 0.00 0.00 0.00 0.00 0.00 0.00 0.00 0.00 0.00 0.00 0.00 0.00 0.00 0.00 0.00 0.00 0.00 0.00 0.00 0.00 0.00 0.00
0.00 0.00 0.00 0.00 0.00 0.00 0.00 0.00 0.00 0.00 0.00 0.00 0.00 0.00 0.00 0.00 0.00 0.00 0.00 0.00 0.00 0.00 0.00 0.00 0.00 0.00 0.00 0.00 0.00 0.00 0.00 0.00 0.00 0.00 0.00 0.00 0.00 0.00 0.00 0.00 0.00 0.00 0.00 0.00
0.00 0.00 0.00 0.00 0.00 0.00 0.00 0.00 0.00 0.00 0.00 0.00 0.00 0.00 0.00 0.00 0.00 0.00 0.00 0.00 0.00 0.00 0.00 0.00 0.00 0.00 0.00 0.00 0.00 0.00 0.00 0.00 0.00 0.00 0.00 0.00 0.00 0.00 0.00 0.00 0.00 0.00 0.00 0.00
0.00 0.00 0.00 0.00 0.00 0.00 0.00 0.00 0.00 0.00 0.00 0.00 0.00 0.00 0.00 0.00 0.00 0.00 0.00 0.00 0.00 0.00 0.00 0.00 0.00 0.00 0.00 0.00 0.00 0.00 0.00 0.00 0.00 0.00 0.00 0.00 0.00 0.00 0.00 0.00 0.00 0.00 0.00 0.00
0.00 0.00 0.00 0.00 0.00 0.00 0.00 0.00 0.00 0.00 0.00 0.00 0.00 0.00 0.00 0.00 0.00 0.00 0.00 0.00 0.00 0.00 0.00 0.00 0.00 0.00 0.00 0.00 0.00 0.00 0.00 0.00 0.00 0.00 0.00 0.00 0.00 0.00 0.00 0.00 0.00 0.00 0.00 0.00
0.00 0.00 0.00 0.00 0.00 0.00 0.00 0.00 0.00 0.00 0.00 0.00 0.00 0.00 0.00 0.00 0.00 0.00 0.00 0.00 0.00 0.00 0.00 0.00 0.00 0.00 0.00 0.00 0.00 0.00 0.00 0.00 0.00 0.00 0.00 0.00 0.00 0.00 0.00 0.00 0.00 0.00 0.00 0.00
0.00 0.00 0.00 0.00 0.00 0.00 0.00 0.00 0.00 0.00 0.00 0.00 0.00 0.00 0.00 0.00 0.00 0.00 0.00 0.00 0.00 0.00 0.00 0.00 0.00 0.00 0.00 0.00 0.00 0.00 0.00 0.00 0.00 0.00 0.00 0.00 0.00 0.00 0.00 0.00 0.00 0.00 0.00 0.00
0.00 0.00 0.00 0.00 0.00 0.00 0.00 0.00 0.00 0.00 0.00 0.00 0.00 0.00 0.00 0.00 0.00 0.00 0.00 0.00 0.00 0.00 0.00 0.00 0.00 0.00 0.00 0.00 0.00 0.00 0.00 0.00 0.00 0.00 0.00 0.00 0.00 0.00 0.00 0.00 0.00 0.00 0.00 0.00
0.00 0.00 0.00 0.00 0.00 0.00 0.00 0.00 0.00 0.00 0.00 0.00 0.00 0.00 0.00 0.00 0.00 0.00 0.00 0.00 0.00 0.00 0.00 0.00 0.00 0.00 0.00 0.00 0.00 0.00 0.00 0.00 0.00 0.00 0.00 0.00 0.00 0.00 0.00 0.00 0.00 0.00 0.00 0.00
0.00 0.00 0.00 0.00 0.00 0.00 0.00 0.00 0.00 0.01 0.02 0.00 0.00 0.00 0.00 0.00 0.00 0.00 0.00 0.00 0.00 0.00 0.00 0.00 0.00 0.00 0.00 0.00 0.00 0.00 0.00 0.00 0.00 0.00 0.00 0.00 0.00 0.00 0.00 0.00 0.00 0.00 0.00 0.00
0.00 0.00 0.00 0.00 0.00 0.00 0.00 0.00 0.00 0.01 0.02 0.00 0.00 0.00 0.00 0.00 0.00 0.00 0.00 0.00 0.00 0.00 0.00 0.00 0.00 0.00 0.00 0.00 0.00 0.00 0.00 0.00 0.00 0.00 0.00 0.00 0.00 0.00 0.00 0.00 0.00 0.00 0.00 0.00
0.00 0.00 0.00 0.00 0.00 0.00 0.00 0.00 0.00 0.00 0.03 0.00 0.00 0.00 0.00 0.00 0.00 0.00 0.00 0.00 0.00 0.00 0.00 0.00 0.00 0.00 0.00 0.00 0.00 0.00 0.00 0.00 0.00 0.00 0.00 0.00 0.00 0.00 0.00 0.00 0.00 0.00 0.00 0.00
0.00 0.00 0.00 0.00 0.00 0.00 0.00 0.00 0.00 0.03 0.01 0.00 0.00 0.00 0.00 0.00 0.00 0.00 0.00 0.00 0.00 0.00 0.00 0.00 0.00 0.00 0.00 0.00 0.00 0.00 0.00 0.00 0.00 0.00 0.00 0.00 0.00 0.00 0.00 0.00 0.00 0.00 0.00 0.00
0.00 0.00 0.00 0.00 0.00 0.00 0.00 0.00 0.01 0.02 0.00 0.00 0.00 0.00 0.00 0.00 0.00 0.00 0.00 0.00 0.00 0.00 0.00 0.00 0.00 0.00 0.00 0.00 0.00 0.00 0.00 0.00 0.00 0.00 0.00 0.00 0.00 0.00 0.00 0.00 0.00 0.00 0.00 0.00
0.00 0.00 0.00 0.00 0.00 0.00 0.00 0.00 0.00 0.00 0.00 0.01 0.01 0.01 0.00 0.00 0.00 0.00 0.00 0.00 0.00 0.00 0.00 0.00 0.00 0.00 0.00 0.00 0.00 0.00 0.00 0.00 0.00 0.00 0.00 0.00 0.00 0.00 0.00 0.00 0.00 0.00 0.00 0.00
0.00 0.00 0.00 0.00 0.00 0.00 0.00 0.00 0.00 0.01 0.01 0.00 0.01 0.00 0.00 0.00 0.00 0.00 0.00 0.00 0.00 0.00 0.00 0.00 0.00 0.00 0.00 0.00 0.00 0.00 0.00 0.00 0.00 0.00 0.00 0.00 0.00 0.00 0.00 0.00 0.00 0.00 0.00 0.00
0.00 0.00 0.00 0.00 0.00 0.00 0.00 0.00 0.00 0.01 0.02 0.02 0.01 0.00 0.01 0.01 0.01 0.01 0.01 0.02 0.01 0.01 0.00 0.00 0.00 0.00 0.00 0.00 0.00 0.00 0.00 0.00 0.00 0.00 0.00 0.00 0.00 0.00 0.00 0.00 0.00 0.00 0.00 0.00
0.00 0.00 0.00 0.00 0.01 0.00 0.01 0.00 0.00 0.00 0.01 0.01 0.01 0.00 0.02 0.02 0.01 0.01 0.00 0.02 0.04 0.02 0.04 0.01 0.00 0.00 0.00 0.00 0.00 0.00 0.00 0.00 0.00 0.00 0.00 0.00 0.00 0.00 0.00 0.00 0.00 0.00 0.00 0.00
MSLP
1004.27 1003.57 1002.45 1001.89 1002.03 1001.51 1001.45 1001.35 1001.33 1001.93 1002.56 1002.64 1002.37 1002.51 1003.27 1004.99 1005.45 1005.97 1006.75 1007.81 1008.52 1009.01 1009.73 1010.47 1011.17 1011.79 1012.46 1013.21 1013.86 1014.43 1014.94 1015.50 1015.83 1015.85 1015.60 1015.55 1015.51 1015.74 1015.99 1016.14 1016.67 1016.87 1016.85 1016.91
1002.93 1001.98 1001.89 1002.05 1001.95 1002.27 1002.05 1001.73 1001.52 1002.31 1002.61 1002.62 1001.99 1002.04 1002.31 1003.55 1004.52 1004.91 1005.82 1006.78 1007.59 1008.40 1009.08 1009.85 1010.67 1011.34 1011.94 1012.69 1013.39 1014.13 1014.56 1015.27 1015.65 1015.57 1015.53 1015.39 1015.39 1015.61 1015.62 1016.07 1016.62 1016.78 1016.94 1017.08
1001.34 1001.39 1001.84 1001.79 1002.01 1002.07 1001.83 1001.52 1001.21 1001.68 1002.40 1002.33 1002.10 1001.51 1001.46 1002.32 1003.38 1004.11 1004.87 1005.83 1006.71 1007.32 1008.15 1009.13 1010.07 1010.85 1011.53 1012.12 1012.84 1013.60 1014.30 1014.81 1015.32 1015.36 1015.71 1016.06 1016.12 1016.05 1016.01 1016.24 1016.39 1016.55 1016.96 1017.09
1000.99 1001.23 1001.13 1001.69 1001.42 1001.73 1001.01 1001.76 1001.70 1002.01 1002.01 1001.11 1001.87 1000.22 1000.77 1001.49 1002.40 1003.16 1003.91 1004.79 1005.63 1006.43 1007.51 1008.39 1009.31 1010.13 1010.75 1011.53 1012.37 1013.07 1013.94 1014.47 1015.03 1015.49 1015.39 1015.51 1015.38 1015.21 1015.30 1015.80 1016.17 1016.54 1016.89 1016.99
1000.17 1000.57 1000.63 1001.13 1000.85 1001.28 1000.93 1001.22 1001.92 1002.00 1001.89 1001.46 1001.27 1000.90 999.88 1000.61 1001.01 1001.69 1002.65 1003.52 1004.44 1005.35 1006.31 1007.12 1008.25 1009.48 1010.37 1011.04 1011.71 1012.56 1013.50 1014.10 1014.52 1015.11 1015.21 1015.48 1015.37 1015.12 1015.63 1015.77 1016.50 1016.60 1016.93 1017.00
1000.45 1000.51 1000.36 1000.70 1000.89 1000.98 1001.55 1001.94 1002.17 1002.15 1001.59 1000.57 1000.60 1000.31 999.25 999.01 999.63 1000.09 1001.15 1002.27 1003.15 1003.97 1005.03 1005.99 1007.14 1008.56 1009.48 1010.32 1011.02 1011.78 1012.81 1013.59 1014.27 1014.78 1015.24 1015.32 1015.18 1015.15 1015.34 1015.74 1016.01 1016.12 1016.38 1016.67
1001.11 1000.06 1000.54 1000.71 1000.52 1000.87 1001.38 1001.61 1001.18 1001.09 1000.62 1000.01 1000.05 999.67 999.48 999.44 999.78 1000.00 1000.03 1000.80 1001.82 1002.76 1003.73 1004.93 1005.90 1007.26 1008.42 1009.13 1010.03 1010.99 1012.09 1012.91 1013.62 1014.25 1014.69 1015.06 1015.24 1015.50 1015.61 1015.75 1015.69 1015.65 1015.88 1016.21
999.93 999.97 1000.07 1000.59 999.95 1000.00 1000.82 1000.85 1000.00 999.65 999.41 999.27 999.60 999.03 999.28 999.28 999.36 999.31 999.73 1000.02 1000.21 1001.09 1002.45 1003.61 1004.87 1006.42 1007.39 1008.36 1009.29 1010.17 1011.23 1012.21 1012.89 1013.53 1014.14 1014.67 1015.02 1015.07 1015.24 1015.51 1015.19 1015.62 1015.54 1015.91
999.42 999.32 999.55 1000.21 1000.32 1000.15 1000.09 1000.27 1000.44 999.97 999.43 998.95 998.31 998.96 999.01 999.29 999.15 999.11 999.45 999.37 999.67 999.91 1001.01 1002.51 1003.86 1005.27 1006.45 1007.45 1008.37 1009.37 1010.33 1011.44 1012.08 1012.76 1013.55 1014.16 1014.62 1014.75 1014.60 1014.89 1015.57 1015.66 1015.87 1015.78
1000.64 999.67 999.97 1000.31 1000.36 1000.16 999.85 1000.71 1000.39 1000.04 999.25 998.59 998.70 998.42 997.85 998.13 998.19 998.46 999.41 999.26 999.41 999.91 1000.51 1001.78 1003.01 1004.34 1005.57 1006.72 1007.77 1008.84 1009.63 1010.47 1011.18 1012.03 1012.76 1013.45 1013.99 1014.39 1014.49 1014.85 1015.25 1015.37 1015.65 1016.03
1001.59 1000.77 1000.13 1000.35 1000.05 999.46 1000.37 999.95 999.78 999.61 999.53 998.60 998.31 997.38 997.82 998.51 998.63 998.88 999.53 999.30 999.47 1000.00 1000.64 1001.50 1002.40 1003.62 1004.87 1005.76 1006.81 1007.82 1008.72 1009.51 1010.31 1011.13 1011.91 1012.61 1013.20 1013.72 1014.21 1014.40 1014.83 1015.24 1015.66 1015.91
1003.19 1001.65 1000.07 1000.23 999.91 1000.01 999.61 999.67 999.78 999.03 999.18 998.77 998.35 997.20 997.47 998.05 998.60 999.32 999.79 999.31 999.86 1000.06 1000.51 1001.35 1002.09 1003.04 1004.07 1004.85 1005.67 1006.63 1007.70 1008.53 1009.31 1010.19 1011.16 1011.91 1012.56 1013.01 1013.41 1013.85 1014.13 1014.64 1015.09 1015.48
1004.20 1002.52 1001.06 1000.19 1000.75 1000.88 1000.16 999.83 999.68 999.64 999.60 998.50 998.45 997.90 997.85 998.01 998.47 999.23 999.54 999.70 1000.04 1000.31 1000.41 1001.12 1001.85 1002.43 1003.18 1004.19 1004.95 1005.79 1006.81 1007.59 1008.53 1009.49 1010.38 1011.02 1011.61 1012.18 1012.55 1012.96 1013.48 1013.95 1014.39 1014.77
1005.45 1003.20 1001.75 1000.67 1000.05 1000.36 1000.70 1000.29 1000.08 999.90 999.17 999.01 998.44 998.46 998.14 998.53 999.01 999.65 1000.05 1000.73 1000.62 1000.55 1000.43 1000.81 1001.55 1002.23 1002.97 1003.64 1004.39 1005.11 1005.90 1006.82 1007.73 1008.67 1009.44 1010.09 1010.68 1011.20 1011.71 1012.25 1012.75 1013.23 1013.69 1014.10
1005.28 1003.53 1003.56 1002.76 1002.29 1001.93 1000.65 1000.50 1000.55 1000.28 999.99 999.25 999.05 998.82 999.18 999.33 999.67 1000.30 1000.99 1000.93 1000.93 1000.71 1000.53 1000.80 1001.49 1002.11 1002.79 1003.27 1003.80 1004.44 1005.28 1006.09 1006.82 1007.78 1008.45 1008.95 1009.73 1010.49 1011.01 1011.41 1011.97 1012.49 1012.99 1013.35
1005.95 1004.94 1004.49 1003.11 1002.99 1002.56 1002.12 1001.81 1001.62 1001.14 1000.84 1000.55 1000.44 999.99 1000.03 1000.51 1001.21 1001.46 1001.55 1001.27 1001.29 1001.18 1000.96 1000.75 1001.01 1001.59 1002.14 1002.85 1003.51 1004.14 1004.68 1005.24 1006.13 1006.70 1007.39 1008.13 1008.83 1009.47 1010.11 1010.72 1011.13 1011.73 1012.21 1012.68
1006.45 1005.43 1004.81 1003.21 1003.51 1003.15 1002.49 1001.91 1001.84 1001.93 1002.11 1002.07 1001.74 1001.76 1002.04 1002.33 1002.37 1002.81 1002.51 1002.40 1002.22 1001.90 1001.57 1001.25 1000.80 1000.80 1001.37 1001.92 1002.69 1003.20 1004.11 1005.18 1005.59 1005.97 1006.67 1007.34 1007.95 1008.45 1009.05 1009.81 1010.40 1010.76 1011.34 1011.92
1007.24 1006.73 1005.68 1003.91 1004.08 1003.21 1002.66 1003.42 1003.46 1003.22 1004.59 1005.57 1004.75 1004.79 1004.81 1004.32 1003.55 1003.16 1002.96 1003.75 1003.31 1002.95 1002.31 1001.89 1001.14 1000.47 1000.60 1001.04 1001.58 1002.52 1003.07 1003.85 1004.54 1005.17 1005.56 1006.25 1007.01 1007.57 1008.15 1008.78 1009.34 1009.89 1010.42 1010.93
1008.08 1007.25 1005.92 1005.06 1004.25 1003.27 1004.01 1005.25 1005.40 1005.05 1007.16 1008.43 1008.41 1007.86 1007.27 1006.27 1004.49 1002.91 1004.43 1005.00 1004.51 1004.12 1003.18 1002.09 1001.21 1000.53 1000.03 1000.06 1000.78 1001.48 1002.28 1002.75 1003.37 1003.63 1004.32 1005.00 1005.63 1006.41 1007.21 1007.77 1008.32 1008.87 1009.42 1009.83
1008.63 1008.62 1007.41 1005.96 1004.83 1004.02 1005.32 1006.92 1007.23 1007.65 1008.41 1010.03 1010.08 1009.39 1008.83 1007.69 1005.88 1004.59 1005.56 1005.56 1005.40 1005.00 1003.92 1002.37 1001.17 1000.21 999.41 999.42 999.99 1000.66 1001.09 1001.62 1001.77 1002.48 1003.37 1004.27 1004.97 1005.58 1006.11 1006.66 1007.36 1007.98 1008.49 1008.75
1008.78 1008.51 1007.71 1006.76 1006.07 1005.77 1007.96 1008.05 1008.18 1009.18 1011.34 1011.59 1011.41 1010.57 1009.92 1009.40 1008.91 1007.73 1006.96 1006.39 1006.09 1005.50 1004.32 1002.77 1001.10 999.76 999.04 998.76 999.42 999.83 1000.31 1000.38 1001.05 1002.23 1002.86 1003.55 1004.21 1004.76 1005.25 1005.83 1006.35 1006.99 1007.56 1007.80
1008.63 1008.40 1007.69 1007.65 1007.26 1007.83 1009.29 1008.97 1010.45 1012.83 1012.79 1012.69 1011.95 1010.71 1010.15 1009.76 1008.89 1008.03 1007.49 1007.13 1006.47 1005.69 1004.60 1003.18 1000.93 999.61 998.69 998.60 998.96 999.29 999.65 1000.37 1001.21 1001.83 1002.45 1002.89 1003.46 1003.96 1004.41 1005.16 1005.71 1006.19 1006.66 1007.01
1010.21 1009.38 1008.95 1008.62 1008.61 1010.12 1010.71 1011.94 1013.12 1013.59 1013.47 1013.08 1012.47 1011.09 1010.10 1009.73 1009.06 1008.45 1007.81 1007.53 1006.99 1006.26 1005.33 1003.89 1001.83 999.75 998.99 999.00 999.18 999.59 1000.05 1000.62 1001.01 1001.52 1002.03 1002.48 1003.03 1003.41 1003.78 1004.22 1004.93 1005.44 1005.90 1006.01
1010.97 1011.27 1010.40 1010.31 1009.96 1010.64 1010.91 1011.79 1012.66 1013.39 1013.45 1013.11 1012.59 1011.44 1010.73 1010.13 1009.42 1008.75 1008.32 1008.13 1007.59 1007.12 1006.41 1005.27 1003.60 1001.79 1000.17 999.67 999.78 999.95 1000.13 1000.64 1000.92 1001.20 1001.71 1002.12 1002.43 1002.78 1003.19 1003.49 1003.76 1004.11 1004.12 1004.58
1011.40 1012.01 1011.12 1010.75 1010.61 1011.32 1010.87 1011.94 1012.55 1012.69 1012.97 1012.87 1012.47 1011.45 1010.91 1010.49 1009.86 1009.31 1008.91 1008.78 1008.31 1008.07 1007.50 1006.46 1005.33 1004.34 1003.43 1002.61 1001.68 1001.06 1000.43 1000.47 1000.62 1000.90 1001.23 1001.47 1001.58 1002.02 1002.30 1002.60 1002.44 1002.69 1002.85 1002.93
1012.45 1012.38 1011.90 1011.21 1012.13 1012.71 1012.23 1012.41 1012.75 1012.59 1012.81 1012.73 1012.39 1011.50 1010.94 1010.82 1010.41 1009.94 1009.66 1009.55 1009.20 1008.68 1008.27 1007.33 1006.41 1005.59 1005.02 1004.39 1003.80 1003.02 1002.22 1001.35 1000.54 1000.37 1000.37 1000.24 1000.45 1000.79 1001.42 1001.41 1001.95 1002.19 1002.44 1002.76
Thickness
5783 5773 5775 5795 5803 5812 5808 5807 5805 5812 5822 5816 5818 5821 5824 5819 5819 5816 5814 5808 5806 5806 5812 5813 5810 5809 5806 5803 5801 5799 5795 5795 5793 5792 5793 5794 5794 5796 5796 5795 5792 5791 5792 5792
5772 5769 5797 5804 5805 5795 5797 5795 5800 5805 5816 5813 5819 5816 5833 5827 5821 5826 5821 5816 5812 5811 5811 5811 5810 5809 5807 5805 5803 5801 5800 5798 5795 5797 5798 5799 5799 5799 5800 5797 5794 5793 5792 5792
5768 5786 5797 5793 5787 5784 5792 5793 5803 5799 5807 5817 5813 5811 5825 5833 5832 5832 5831 5827 5823 5819 5815 5812 5810 5807 5808 5807 5805 5803 5803 5801 5800 5800 5798 5794 5795 5796 5796 5797 5798 5797 5794 5795
5774 5794 5785 5779 5782 5789 5783 5803 5801 5795 5791 5790 5814 5796 5819 5828 5824 5827 5831 5830 5827 5825 5823 5819 5815 5811 5810 5809 5810 5808 5805 5803 5802 5799 5799 5796 5796 5796 5801 5800 5801 5799 5796 5796
5765 5773 5773 5767 5784 5796 5790 5809 5794 5792 5788 5793 5798 5792 5821 5832 5823 5830 5834 5835 5834 5834 5831 5827 5822 5814 5813 5813 5812 5809 5806 5804 5806 5802 5802 5799 5797 5803 5801 5802 5797 5800 5797 5797
5768 5790 5784 5782 5794 5797 5801 5783 5784 5787 5790 5773 5795 5797 5811 5832 5835 5844 5846 5843 5842 5842 5839 5837 5833 5823 5818 5818 5818 5815 5809 5805 5805 5803 5801 5801 5801 5802 5802 5800 5799 5802 5803 5802
5745 5758 5774 5784 5773 5786 5781 5768 5751 5749 5758 5762 5810 5799 5809 5832 5841 5844 5849 5852 5851 5850 5846 5840 5836 5827 5822 5821 5822 5819 5813 5808 5808 5806 5804 5804 5804 5802 5800 5801 5803 5804 5804 5803
5729 5719 5754 5768 5774 5771 5767 5772 5763 5739 5759 5778 5806 5781 5804 5840 5850 5857 5858 5859 5865 5860 5854 5847 5841 5832 5827 5823 5822 5822 5817 5811 5811 5809 5805 5805 5807 5808 5807 5805 5809 5806 5807 5806
5733 5734 5766 5766 5775 5778 5767 5752 5790 5775 5793 5780 5805 5803 5826 5836 5839 5847 5844 5857 5859 5864 5862 5853 5846 5838 5831 5827 5826 5825 5821 5816 5815 5812 5809 5807 5807 5810 5812 5811 5807 5806 5806 5808
5727 5725 5745 5753 5768 5771 5769 5775 5752 5762 5740 5744 5775 5783 5800 5821 5832 5842 5835 5847 5854 5859 5861 5856 5849 5843 5837 5831 5828 5826 5825 5820 5819 5816 5814 5811 5810 5811 5813 5811 5807 5808 5807 5805
5721 5726 5726 5740 5737 5746 5744 5749 5762 5778 5770 5755 5755 5782 5827 5819 5827 5825 5827 5845 5851 5853 5855 5853 5852 5847 5840 5837 5833 5831 5828 5825 5823 5822 5819 5816 5814 5814 5813 5813 5811 5808 5806 5805
5700 5718 5717 5720 5753 5760 5762 5756 5761 5752 5745 5769 5773 5790 5835 5831 5830 5830 5825 5841 5846 5852 5855 5853 5850 5847 5842 5840 5838 5835 5832 5830 5830 5828 5822 5818 5817 5817 5817 5816 5816 5813 5809 5808
5686 5697 5695 5713 5720 5732 5733 5752 5761 5766 5767 5758 5750 5773 5830 5833 5831 5830 5826 5833 5839 5846 5851 5851 5848 5845 5842 5839 5838 5837 5835 5834 5832 5829 5824 5821 5821 5820 5821 5821 5820 5818 5815 5812
5667 5687 5697 5703 5716 5730 5717 5733 5747 5750 5743 5751 5761 5772 5800 5811 5814 5818 5819 5817 5829 5839 5847 5849 5846 5843 5841 5841 5839 5838 5838 5837 5834 5831 5827 5825 5824 5824 5825 5824 5823 5821 5819 5816
5668 5671 5676 5687 5694 5703 5722 5725 5733 5732 5747 5743 5764 5767 5786 5801 5803 5806 5812 5819 5821 5831 5840 5844 5840 5839 5839 5840 5841 5841 5839 5839 5838 5833 5831 5831 5829 5827 5826 5827 5826 5825 5822 5820
5658 5655 5665 5677 5686 5693 5693 5707 5715 5728 5739 5746 5752 5755 5785 5792 5798 5798 5802 5812 5817 5823 5832 5842 5844 5842 5840 5838 5837 5837 5838 5839 5838 5837 5835 5835 5832 5830 5829 5828 5829 5826 5824 5822
5642 5652 5656 5668 5676 5681 5678 5701 5711 5722 5733 5737 5729 5751 5758 5764 5775 5779 5789 5797 5804 5815 5825 5833 5842 5846 5844 5843 5841 5840 5837 5833 5834 5836 5835 5834 5834 5833 5832 5830 5828 5828 5826 5824
5627 5633 5647 5663 5662 5650 5688 5696 5702 5712 5694 5696 5719 5724 5733 5746 5768 5780 5786 5780 5790 5803 5815 5824 5837 5847 5849 5849 5849 5845 5844 5841 5838 5836 5837 5837 5835 5835 5834 5831 5830 5829 5828 5825
5623 5630 5638 5641 5654 5681 5672 5666 5673 5684 5671 5670 5675 5690 5706 5727 5756 5776 5768 5770 5778 5790 5805 5821 5835 5844 5852 5855 5852 5849 5845 5846 5844 5846 5845 5843 5842 5838 5835 5832 5832 5832 5829 5828
5612 5612 5623 5636 5640 5649 5650 5655 5669 5671 5662 5659 5664 5674 5687 5706 5722 5747 5754 5762 5769 5779 5796 5815 5831 5843 5853 5857 5856 5849 5847 5847 5851 5851 5848 5844 5841 5838 5835 5835 5833 5832 5830 5829
5593 5601 5607 5623 5632 5649 5631 5646 5663 5646 5642 5640 5649 5662 5673 5679 5692 5717 5737 5746 5757 5768 5785 5807 5826 5839 5848 5856 5855 5851 5850 5850 5853 5848 5846 5843 5841 5838 5837 5835 5835 5832 5828 5829
5588 5592 5604 5612 5615 5615 5625 5640 5629 5610 5620 5626 5641 5660 5667 5677 5693 5710 5723 5731 5743 5757 5774 5794 5819 5833 5846 5851 5850 5848 5848 5847 5844 5842 5839 5838 5838 5836 5835 5832 5830 5830 5828 5826
5565 5583 5588 5600 5599 5603 5609 5599 5597 5601 5607 5619 5629 5650 5664 5671 5685 5698 5711 5720 5730 5745 5758 5778 5804 5826 5836 5840 5842 5836 5836 5837 5836 5835 5833 5833 5831 5830 5830 5828 5825 5823 5824 5825
5559 5564 5572 5577 5588 5590 5600 5601 5599 5596 5603 5614 5623 5639 5651 5659 5675 5688 5701 5707 5718 5729 5740 5755 5776 5797 5815 5826 5829 5830 5833 5830 5827 5825 5824 5825 5825 5825 5825 5827 5827 5826 5831 5830
5550 5550 5559 5568 5578 5578 5591 5589 5591 5597 5601 5606 5614 5631 5639 5649 5662 5675 5687 5693 5704 5712 5723 5736 5750 5763 5776 5790 5804 5816 5827 5826 5822 5820 5819 5820 5823 5821 5822 5823 5828 5832 5837 5839
5539 5539 5547 5555 5553 5551 5565 5574 5579 5587 5590 5598 5606 5621 5632 5639 5649 5660 5669 5676 5686 5697 5707 5720 5732 5745 5755 5765 5775 5788 5799 5808 5816 5815 5817 5821 5823 5824 5821 5823 5821 5826 5828 5829